Miscellaneous Local Product
Issued by NWS Hastings, NE

Home | Current Version | Previous Version | Graphics & Text | Print | Product List | Glossary On
Versions: 1 2 3 4 5 6 7 8 9 10 11 12 13 14 15 16 17 18 19 20 21 22 23 24 25 26 27 28 29 30 31 32 33 34 35 36 37 38 39 40 41 42 43 44 45 46 47 48 49 50
545
AXUS43 KGID 120802
MISGRI

GID CWA HOURLY WEATHER ROUNDUP
NATIONAL WEATHER SERVICE HASTINGS NE
200 AM CST TUE DEC 12 2017

NOTE: "FAIR" INDICATES FEW OR NO CLOUDS BELOW 12,000 FEET WITH NO
SIGNIFICANT WEATHER AND/OR OBSTRUCTIONS TO VISIBILITY.

...SOUTH CENTRAL NEBRASKA...

CITY           SKY/WX    TMP DP  RH WIND       PRES   REMARKS
GRAND ISLAND   CLEAR     26  24  92 N5        30.38S WCI  20
KEARNEY        CLOUDY    34  28  79 NW5       30.38S WCI  30
HASTINGS       CLEAR     26  23  88 NW8       30.38R WCI  18
ORD            CLOUDY    32  29  88 NW6       30.35F WCI  26
YORK           CLEAR     25  23  93 N5        30.37F WCI  19
AURORA         CLEAR     22  20  89 NW5       30.37S WCI  16
LEXINGTON      CLEAR     25  21  85 W9        30.38F WCI  16
HOLDREGE       CLOUDY    33  27  76 W12       30.37F WCI  25
HEBRON         CLEAR     28  22  79 N3        30.39S

...NEBRASKA PANHANDLE...

CITY           SKY/WX    TMP DP  RH WIND       PRES   REMARKS
CHADRON        CLOUDY    15  11  83 SW5       30.37F WCI   8
ALLIANCE       CLOUDY     8   5  87 W6        30.36F WCI  -2
SCOTTSBLUFF    CLOUDY    24  14  65 NW8       30.39F WCI  15
SIDNEY         CLOUDY    21  11  65 NW12      30.39F WCI   9

...WESTERN AND NORTH CENTRAL NEBRASKA...

CITY           SKY/WX    TMP DP  RH WIND       PRES   REMARKS
VALENTINE      CLOUDY    29  24  82 W8        30.35S WCI  21
AINSWORTH      CLOUDY    35  29  79 NW8       30.33F WCI  29
ONEILL         CLOUDY    20  20 100 W5        30.35F WCI  13
BROKEN BOW     CLOUDY    38  26  62 N17       30.35F WCI  28
IMPERIAL       CLOUDY    23  16  74 W6        30.41F WCI  16
NORTH PLATTE   CLOUDY    17  15  92 NW6       30.39F WCI   9
MCCOOK         CLOUDY    23  19  85 W13       30.41F WCI  11

...EASTERN NEBRASKA...

CITY           SKY/WX    TMP DP  RH WIND       PRES   REMARKS
NORFOLK        CLOUDY    19  16  88 NW8       30.36S WCI   9
SO SIOUX CITY  CLOUDY    16  13  88 NW7       30.37R WCI   6
TEKAMAH        CLEAR     18  12  77 NW8       30.37R WCI   8
COLUMBUS       CLEAR     23  18  81 N9        30.37F WCI  13
ALBION         CLOUDY    21  19  92 NW3       30.36F
OMAHA EPPLEY   CLEAR     20  12  71 N14       30.36R WCI   7
OFFUTT AFB     CLEAR     23  13  63 NW7G18    30.35R WCI  15
MILLARD        CLEAR     24  18  77 NW8       30.37R WCI  15
LINCOLN        CLEAR     25  18  74 N12       30.39R WCI  14
NEBRASKA CITY  CLEAR     23  18  80 NW12      30.34S WCI  12
BEATRICE       CLEAR     23  20  89 NW10      30.37R WCI  12
FALLS CITY     CLEAR     25  17  72 NW9       30.34R WCI  15

...NORTHERN KANSAS...

CITY           SKY/WX    TMP DP  RH WIND       PRES   REMARKS
GOODLAND       CLOUDY    22  14  71 W9        30.41F WCI  12
HILL CITY      CLOUDY    29  22  75 NW13      30.42S WCI  19
NORTON         SUNNY     27  19  74 W13       30.40S WCI  16
PHILLIPSBURG   MOCLDY    30  25  80 W10       30.42S WCI  21
SMITH CENTER   CLEAR     27  23  86 N5        30.40S WCI  21
HAYS           CLEAR     28  23  81 NW7       30.41S WCI  21
RUSSELL        PTCLDY    29  26  89 NW7       30.39F WCI  22
CONCORDIA      CLEAR     33  23  66 NW12      30.38R WCI  24
SALINA         CLEAR     33  24  69 NW12      30.40R WCI  24
TOPEKA         CLEAR     32  23  69 NW12      30.34R WCI  23



USA.gov is the U.S. government's official web portal to all federal, state and local government web resources and services.